| time (UTC) | temp F | wind direction | speed MPH | gust MPH | rain 1hr in | rain 24hr in | rain mn in | humidity % | barometer mb |
| 20260510204550 | 54 | 200 | 6.0 | 16.0 | 0.00 | 0.19 | 0.02 | 60 | 1017.5 |
| 20260510203046 | 55 | 263 | 5.0 | 14.0 | 0.00 | 0.19 | 0.02 | 59 | 1017.3 |
| 20260510201546 | 54 | 233 | 7.0 | 15.0 | 0.00 | 0.19 | 0.02 | 60 | 1017.2 |
| 20260510200046 | 54 | 184 | 6.0 | 22.0 | 0.00 | 0.19 | 0.02 | 59 | 1017.2 |
| 20260510194545 | 55 | 217 | 4.0 | 12.0 | 0.00 | 0.19 | 0.02 | 60 | 1017.3 |
| 20260510193048 | 54 | 219 | 5.0 | 14.0 | 0.00 | 0.19 | 0.02 | 62 | 1017.1 |
| 20260510191543 | 54 | 225 | 4.0 | 15.0 | 0.00 | 0.19 | 0.02 | 62 | 1017.0 |
| 20260510190050 | 54 | 172 | 8.0 | 21.0 | 0.00 | 0.19 | 0.02 | 60 | 1016.9 |
| 20260510184604 | 55 | 227 | 5.0 | 14.0 | 0.00 | 0.19 | 0.02 | 58 | 1016.8 |
| 20260510183041 | 55 | 278 | 2.0 | 9.0 | 0.00 | 0.19 | 0.02 | 63 | 1016.6 |
| 20260510181552 | 54 | 161 | 5.0 | 15.0 | 0.00 | 0.19 | 0.02 | 62 | 1016.6 |
| 20260510180046 | 53 | 220 | 5.0 | 16.0 | 0.00 | 0.19 | 0.02 | 65 | 1016.5 |
| 20260510174535 | 53 | 208 | 5.0 | 18.0 | 0.00 | 0.19 | 0.02 | 66 | 1016.5 |
| 20260510173033 | 54 | 201 | 6.0 | 14.0 | 0.00 | 0.19 | 0.02 | 64 | 1016.4 |
| 20260510171530 | 54 | 235 | 4.0 | 15.0 | 0.00 | 0.19 | 0.02 | 67 | 1016.3 |
| 20260510170031 | 54 | 192 | 4.0 | 10.0 | 0.00 | 0.19 | 0.02 | 63 | 1016.0 |
| 20260510164527 | 53 | 219 | 5.0 | 14.0 | 0.00 | 0.19 | 0.02 | 66 | 1016.1 |
| 20260510163026 | 53 | 220 | 3.0 | 15.0 | 0.00 | 0.19 | 0.02 | 69 | 1016.1 |
| 20260510161523 | 53 | 227 | 8.0 | 17.0 | 0.00 | 0.19 | 0.02 | 62 | 1016.1 |
| 20260510160021 | 54 | 261 | 6.0 | 10.0 | 0.00 | 0.19 | 0.02 | 65 | 1016.0 |
| 20260510154518 | 54 | 122 | 5.0 | 12.0 | 0.00 | 0.19 | 0.02 | 61 | 1015.8 |
| 20260510153033 | 55 | 265 | 4.0 | 10.0 | 0.00 | 0.19 | 0.02 | 60 | 1015.9 |
| 20260510151512 | 55 | 288 | 2.0 | 7.0 | 0.00 | 0.19 | 0.02 | 56 | 1015.8 |
| 20260510150008 | 54 | 250 | 2.0 | 6.0 | 0.00 | 0.19 | 0.02 | 57 | 1015.7 |
| 20260510144510 | 54 | 238 | 3.0 | 7.0 | 0.00 | 0.19 | 0.02 | 57 | 1015.5 |
| 20260510143104 | 53 | 334 | 2.0 | 9.0 | 0.00 | 0.19 | 0.02 | 55 | 1015.3 |
| 20260510141556 | 52 | 267 | 2.0 | 8.0 | 0.00 | 0.19 | 0.02 | 60 | 1015.1 |
| 20260510140051 | 52 | 261 | 2.0 | 11.0 | 0.00 | 0.19 | 0.02 | 61 | 1015.0 |
| 20260510134550 | 52 | 287 | 5.0 | 10.0 | 0.00 | 0.19 | 0.02 | 55 | 1014.9 |
| 20260510133042 | 51 | 234 | 2.0 | 8.0 | 0.00 | 0.19 | 0.02 | 61 | 1014.7 |
| 20260510131537 | 50 | 321 | 3.0 | 10.0 | 0.00 | 0.19 | 0.02 | 58 | 1014.5 |
| 20260510130033 | 50 | 269 | 3.0 | 7.0 | 0.00 | 0.19 | 0.02 | 62 | 1014.1 |
| 20260510124528 | 49 | 291 | 2.0 | 8.0 | 0.00 | 0.19 | 0.02 | 65 | 1014.0 |
| 20260510123025 | 48 | 307 | 2.0 | 9.0 | 0.00 | 0.19 | 0.02 | 65 | 1014.0 |
| 20260510121519 | 47 | 277 | 0.0 | 8.0 | 0.00 | 0.19 | 0.02 | 70 | 1013.8 |
| 20260510120016 | 46 | 290 | 2.0 | 5.0 | 0.00 | 0.19 | 0.02 | 70 | 1013.6 |
| 20260510114510 | 45 | 286 | 1.0 | 6.0 | 0.00 | 0.19 | 0.02 | 73 | 1013.3 |
| 20260510113007 | 45 | 284 | 0.0 | 5.0 | 0.00 | 0.19 | 0.02 | 74 | 1013.1 |
| 20260510111505 | 44 | 248 | 2.0 | 5.0 | 0.00 | 0.19 | 0.02 | 78 | 1012.8 |
| 20260510110003 | 44 | 261 | 0.0 | 3.0 | 0.00 | 0.19 | 0.02 | 80 | 1012.5 |
| 20260510104610 | 44 | 287 | 0.0 | 3.0 | 0.00 | 0.19 | 0.02 | 80 | 1012.2 |
| 20260510103055 | 44 | 286 | 0.0 | 3.0 | 0.00 | 0.19 | 0.02 | 80 | 1011.8 |
| 20260510101558 | 44 | 296 | 0.0 | 4.0 | 0.00 | 0.19 | 0.02 | 80 | 1011.4 |
| 20260510100054 | 44 | 298 | 1.0 | 5.0 | 0.00 | 0.19 | 0.02 | 78 | 1011.1 |
| 20260510094554 | 45 | 306 | 0.0 | 5.0 | 0.00 | 0.19 | 0.02 | 79 | 1010.8 |
| 20260510093048 | 45 | 301 | 1.0 | 4.0 | 0.00 | 0.19 | 0.02 | 80 | 1010.6 |
| 20260510091541 | 45 | 224 | 1.0 | 5.0 | 0.00 | 0.19 | 0.02 | 83 | 1010.6 |
| 20260510090041 | 46 | 295 | 0.0 | 3.0 | 0.00 | 0.19 | 0.02 | 84 | 1010.4 |
| 20260510084551 | 46 | 309 | 0.0 | 2.0 | 0.00 | 0.19 | 0.02 | 82 | 1010.5 |
| 20260510083042 | 46 | 309 | 2.0 | 5.0 | 0.00 | 0.19 | 0.02 | 81 | 1009.6 |
| 20260510081537 | 46 | 342 | 0.0 | 3.0 | 0.00 | 0.19 | 0.02 | 84 | 1009.8 |
| 20260510080032 | 47 | 321 | 1.0 | 4.0 | 0.00 | 0.19 | 0.02 | 85 | 1009.6 |
| 20260510074530 | 47 | 321 | 0.0 | 2.0 | 0.00 | 0.19 | 0.02 | 88 | 1009.2 |
| 20260510073044 | 47 | 294 | 0.0 | 6.0 | 0.00 | 0.19 | 0.02 | 90 | 1009.2 |
| 20260510071526 | 48 | 313 | 0.0 | 2.0 | 0.00 | 0.19 | 0.02 | 93 | 1008.9 |
| 20260510070024 | 48 | 314 | 0.0 | 1.0 | 0.00 | 0.19 | 0.02 | 93 | 1008.6 |
| 20260510064520 | 48 | 314 | 1.0 | 3.0 | 0.00 | 0.19 | 0.02 | 94 | 1008.6 |
| 20260510063019 | 49 | 333 | 0.0 | 4.0 | 0.00 | 0.19 | 0.02 | 94 | 1008.2 |
| 20260510061521 | 49 | 280 | 0.0 | 4.0 | 0.00 | 0.19 | 0.02 | 95 | 1008.4 |
| 20260510060028 | 50 | 325 | 1.0 | 4.0 | 0.00 | 0.19 | 0.02 | 95 | 1008.1 |
| 20260510054514 | 50 | 315 | 0.0 | 3.0 | 0.01 | 0.19 | 0.02 | 96 | 1007.9 |
| 20260510053011 | 50 | 297 | 0.0 | 0.0 | 0.02 | 0.19 | 0.02 | 96 | 1008.1 |
| 20260510051510 | 50 | 306 | 0.0 | 0.0 | 0.02 | 0.19 | 0.02 | 96 | 1007.7 |
| 20260510050007 | 50 | 222 | 0.0 | 0.0 | 0.02 | 0.19 | 0.02 | 96 | 1007.4 |
| 20260510044505 | 50 | 244 | 1.0 | 6.0 | 0.01 | 0.18 | 0.01 | 96 | 1007.1 |
| 20260510043004 | 49 | 271 | 1.0 | 4.0 | 0.00 | 0.17 | 0.00 | 95 | 1007.3 |
| 20260510041607 | 49 | 246 | 1.0 | 3.0 | 0.00 | 0.17 | 0.00 | 94 | 1006.8 |
| 20260510040105 | 50 | 254 | 0.0 | 0.0 | 0.00 | 0.17 | 0.00 | 94 | 1006.4 |
| 20260510034600 | 50 | 263 | 0.0 | 4.0 | 0.00 | 0.17 | 0.17 | 95 | 1006.1 |
| 20260510033055 | 50 | 221 | 0.0 | 6.0 | 0.00 | 0.17 | 0.17 | 95 | 1006.3 |
| 20260510031603 | 50 | 174 | 3.0 | 6.0 | 0.00 | 0.17 | 0.17 | 95 | 1006.2 |
| 20260510030057 | 50 | 196 | 1.0 | 4.0 | 0.00 | 0.17 | 0.17 | 94 | 1006.4 |
| 20260510024554 | 50 | 250 | 0.0 | 0.0 | 0.00 | 0.17 | 0.17 | 94 | 1006.5 |
| 20260510023053 | 50 | 223 | 0.0 | 3.0 | 0.00 | 0.17 | 0.17 | 93 | 1006.2 |
| 20260510021553 | 50 | 195 | 1.0 | 4.0 | 0.00 | 0.17 | 0.17 | 93 | 1005.8 |
| 20260510020052 | 51 | 182 | 0.0 | 7.0 | 0.00 | 0.17 | 0.17 | 93 | 1005.6 |
| 20260510014552 | 51 | 281 | 2.0 | 6.0 | 0.00 | 0.17 | 0.17 | 93 | 1005.7 |
| 20260510013101 | 51 | 246 | 3.0 | 8.0 | 0.00 | 0.17 | 0.17 | 93 | 1005.4 |
| 20260510011549 | 51 | 190 | 4.0 | 11.0 | 0.00 | 0.17 | 0.17 | 93 | 1005.2 |
| 20260510010048 | 50 | 181 | 3.0 | 12.0 | 0.00 | 0.17 | 0.17 | 93 | 1005.2 |
| 20260510004547 | 50 | 233 | 3.0 | 11.0 | 0.00 | 0.17 | 0.17 | 93 | 1005.0 |
| 20260510003050 | 51 | 197 | 2.0 | 7.0 | 0.00 | 0.17 | 0.17 | 93 | 1004.6 |
| 20260510001547 | 51 | 185 | 0.0 | 6.0 | 0.04 | 0.17 | 0.17 | 93 | 1004.5 |
| 20260510000046 | 51 | 146 | 2.0 | 9.0 | 0.07 | 0.17 | 0.17 | 93 | 1004.5 |
| 20260509234546 | 51 | 159 | 1.0 | 7.0 | 0.12 | 0.17 | 0.17 | 92 | 1004.6 |
| 20260509233045 | 51 | 259 | 1.0 | 5.0 | 0.16 | 0.17 | 0.17 | 91 | 1004.4 |
| 20260509231554 | 51 | 267 | 2.0 | 9.0 | 0.13 | 0.13 | 0.13 | 90 | 1005.2 |
| 20260509230044 | 52 | 253 | 3.0 | 17.0 | 0.10 | 0.10 | 0.10 | 87 | 1005.4 |
| 20260509224546 | 56 | 329 | 7.0 | 23.0 | 0.04 | 0.04 | 0.04 | 85 | 1005.7 |
| 20260509223045 | 58 | 142 | 3.0 | 5.0 | 0.01 | 0.01 | 0.01 | 82 | 1003.3 |
| 20260509221543 | 59 | 190 | 3.0 | 6.0 | 0.00 | 0.00 | 0.00 | 77 | 1002.9 |
| 20260509220045 | 60 | 219 | 1.0 | 2.0 | 0.00 | 0.00 | 0.00 | 78 | 1002.4 |
| 20260509214540 | 60 | 219 | 1.0 | 3.0 | 0.00 | 0.00 | 0.00 | 77 | 1002.6 |
| 20260509213039 | 60 | 196 | 0.0 | 5.0 | 0.00 | 0.00 | 0.00 | 76 | 1002.8 |
| 20260509211545 | 60 | 206 | 2.0 | 5.0 | 0.00 | 0.00 | 0.00 | 75 | 1002.7 |
| 20260509210039 | 60 | 244 | 3.0 | 7.0 | 0.00 | 0.00 | 0.00 | 74 | 1003.1 |